Home > Weather > Hangzhou > Past weeks

Flag for China Past Weather in Hangzhou, Zhejiang, China — Yesterday and Last 2 Weeks

Now
97 °F

Sunny.


Feels Like: 118 °F
Forecast: 81 / 101 °F
Wind: 1 mph from North

Location: Hangzhou Airport

Current Time: Jul 25, 2016 at 10:35:42 AM

Latest Report: Jul 25, 2016 at 10:00 AM


Visibility: 10 mi

Pressure: 29.77 "Hg

Humidity: 60%

Dew Point: 81 °F

Location of HangzhouLocation

Past Weather in Hangzhou — Graph

°F

Hangzhou Temperature Yesterday

Maximum temperature yesterday: 104 °F (at 3:00 PM)
Minimum temperature yesterday: 84 °F (at 4:00 AM)
Average temperature yesterday: 94 °F

High & Low Weather Summary for the Past Weeks

 TemperatureHumidityPressure
High104 °F (Jul 24, 3:00 PM)100% (Jul 10, 10:30 PM)29.77 "Hg (Jul 10, 10:30 PM)
Low75 °F (Jul 16, 8:30 AM)37% (Jul 23, 2:00 PM)29.47 "Hg (Jul 11, 3:00 PM)
Average88 °F75%29.64 "Hg
* Reported Jul 10 9:00 AM — Jul 25 9:30 AM, Hangzhou, Weather by CustomWeather, © 2016

Note: Actual official high and low records may vary slightly from our data, if they occured in-between our weather recording intervals... More about our weather records

Advertising

Hangzhou Weather History for the Previous 24 Hours

Scroll right to see more
 ConditionsComfort  
Time TempWeatherWind HumidityBarometerVisibility
9:30 AM
Mon, Jul 25
95 °FPassing clouds.3 mph67%29.77 "HgN/A
9:00 AM93 °FSunny.3 mph63%29.77 "Hg10 mi
8:30 AM93 °FSunny.1 mph63%29.77 "Hg10 mi
8:00 AM91 °FSunny.1 mph71%29.77 "Hg10 mi
7:30 AM90 °FPassing clouds.3 mph71%29.77 "HgN/A
7:00 AM90 °FSunny.1 mph71%29.77 "Hg10 mi
6:30 AM88 °FSunny.1 mph75%29.74 "Hg10 mi
6:00 AM86 °FSunny.1 mph84%29.74 "Hg10 mi
5:30 AM84 °FSunny.No wind89%29.74 "Hg10 mi
5:00 AM84 °FClear.1 mph84%29.74 "Hg10 mi
4:30 AM86 °FClear.No wind84%29.74 "Hg10 mi
4:00 AM86 °FPassing clouds.3 mph84%29.74 "HgN/A
3:30 AM88 °FPassing clouds.3 mph79%29.74 "HgN/A
3:00 AM88 °FPassing clouds.6 mph79%29.74 "HgN/A
2:30 AM88 °FClear.6 mph79%29.74 "Hg10 mi
2:00 AM88 °FClear.3 mph75%29.74 "Hg10 mi
1:30 AM90 °FClear.3 mph71%29.74 "Hg10 mi
1:00 AM90 °FClear.3 mph71%29.74 "Hg10 mi
12:30 AM88 °FClear.No wind79%29.74 "Hg10 mi
12:00 AM88 °FClear.No wind75%29.74 "Hg10 mi
11:30 PM
Sun, Jul 24
90 °FClear.No wind71%29.74 "Hg10 mi
11:00 PM91 °FClear.3 mph67%29.74 "Hg10 mi
10:30 PM91 °FClear.1 mph71%29.74 "Hg10 mi
10:00 PM90 °FClear.1 mph75%29.74 "Hg5 mi
9:30 PM91 °FClear.3 mph71%29.74 "Hg5 mi
9:00 PM93 °FClear.6 mph67%29.74 "Hg5 mi
8:30 PM93 °FPassing clouds.6 mph67%29.74 "HgN/A
8:00 PM95 °FPassing clouds.6 mph63%29.71 "HgN/A
7:30 PM93 °FPassing clouds.6 mph67%29.71 "HgN/A
7:00 PM93 °FClear.8 mph67%29.71 "Hg10 mi
6:30 PM95 °FPassing clouds.8 mph63%29.71 "HgN/A
6:00 PM97 °FPassing clouds.8 mph60%29.71 "HgN/A
5:30 PM97 °FPassing clouds.8 mph56%29.71 "HgN/A
5:00 PM99 °FScattered clouds.8 mph53%29.71 "HgN/A
4:30 PM100 °FScattered clouds.8 mph45%29.68 "HgN/A
4:00 PM100 °FScattered clouds.6 mph47%29.71 "HgN/A
3:30 PM100 °FScattered clouds.8 mph50%29.71 "HgN/A
3:00 PM104 °FScattered clouds.1 mph45%29.71 "HgN/A
2:30 PM102 °FScattered clouds.1 mph42%29.71 "HgN/A
2:00 PM102 °FScattered clouds.1 mph42%29.71 "HgN/A
1:30 PM102 °FScattered clouds.3 mph42%29.71 "HgN/A
1:00 PM102 °FScattered clouds.6 mph40%29.71 "HgN/A
12:30 PM102 °FScattered clouds.6 mph48%29.74 "HgN/A
12:00 PM100 °FPassing clouds.1 mph50%29.74 "HgN/A
11:30 AM100 °FPassing clouds.3 mph47%29.74 "HgN/A
11:00 AM99 °FSunny.3 mph50%29.77 "Hg10 mi
10:30 AM99 °FPassing clouds.6 mph50%29.77 "HgN/A
10:00 AM97 °FPassing clouds.3 mph56%29.77 "HgN/A
Weather by CustomWeather, © 2016

See weather overviewHow to use our weather pages